Hourly Weather Almametevo

Today, 27 February, Saturday

Time Temperature Precipitation Wind Pressure Humidity
00:00 -20°C° 1.7 mm 7 mps 740 mmHg 94%
01:00 -18°C° 0.6 mm 6 mps 740 mmHg 94%
02:00 -18°C° 0.6 mm 6 mps 739 mmHg 94%
03:00 -18°C° 0.6 mm 5 mps 739 mmHg 94%
04:00 -18°C° 0.3 mm 5 mps 739 mmHg 94%
05:00 -18°C° 0.3 mm 5 mps 738 mmHg 94%
06:00 -17°C° 0.3 mm 4 mps 738 mmHg 94%
07:00 -17°C° 0.3 mm 4 mps 738 mmHg 94%
08:00 -16°C° 0.3 mm 4 mps 738 mmHg 94%
09:00 -16°C° 0.3 mm 4 mps 738 mmHg 93%
10:00 -15°C° 0.2 mm 4 mps 739 mmHg 93%
11:00 -15°C° 0.2 mm 5 mps 739 mmHg 92%
12:00 -14°C° 0.2 mm 5 mps 739 mmHg 91%
13:00 -14°C° 0.2 mm 5 mps 739 mmHg 91%
14:00 -14°C° 0.2 mm 5 mps 740 mmHg 91%
15:00 -14°C° 0.2 mm 5 mps 740 mmHg 92%
16:00 -15°C° 0.1 mm 5 mps 741 mmHg 92%
17:00 -15°C° 0.1 mm 5 mps 741 mmHg 92%
18:00 -16°C° 0.1 mm 4 mps 742 mmHg 92%
19:00 -16°C° 0 mm 4 mps 742 mmHg 92%
20:00 -17°C° 0 mm 4 mps 742 mmHg 93%
21:00 -17°C° 0 mm 4 mps 743 mmHg 93%
22:00 -18°C° 0 mm 4 mps 743 mmHg 94%
23:00 -19°C° 0 mm 4 mps 743 mmHg 95%

Tomorrow, 28 February, Sunday

Time Temperature Precipitation Wind Pressure Humidity
00:00 -20°C° 0 mm 4 mps 744 mmHg 95%
01:00 -22°C° 0 mm 4 mps 744 mmHg 95%
02:00 -23°C° 0 mm 4 mps 745 mmHg 96%
03:00 -23°C° 0 mm 3 mps 745 mmHg 96%
04:00 -23°C° 0 mm 3 mps 745 mmHg 96%
05:00 -24°C° 0 mm 3 mps 746 mmHg 96%
06:00 -24°C° 0 mm 3 mps 746 mmHg 96%
07:00 -23°C° 0 mm 3 mps 746 mmHg 95%
08:00 -23°C° 0 mm 3 mps 746 mmHg 94%
09:00 -22°C° 0 mm 3 mps 747 mmHg 93%
10:00 -21°C° 0 mm 3 mps 747 mmHg 92%
11:00 -19°C° 0 mm 3 mps 747 mmHg 91%
12:00 -18°C° 0 mm 3 mps 748 mmHg 90%
13:00 -18°C° 0 mm 3 mps 748 mmHg 90%
14:00 -19°C° 0 mm 4 mps 748 mmHg 90%
15:00 -19°C° 0 mm 4 mps 749 mmHg 90%
16:00 -19°C° 0 mm 3 mps 749 mmHg 92%
17:00 -21°C° 0 mm 3 mps 749 mmHg 94%
18:00 -21°C° 0 mm 2 mps 750 mmHg 96%
19:00 -23°C° 0 mm 2 mps 750 mmHg 97%
20:00 -23°C° 0 mm 2 mps 751 mmHg 97%
21:00 -24°C° 0 mm 2 mps 752 mmHg 97%
22:00 -24°C° 0 mm 2 mps 752 mmHg 97%
23:00 -24°C° 0 mm 2 mps 752 mmHg 97%

Day after tomorrow, 1 March, Monday

Time Temperature Precipitation Wind Pressure Humidity
00:00 -25°C° 0 mm 2 mps 753 mmHg 98%
01:00 -25°C° 0 mm 2 mps 753 mmHg 98%
02:00 -25°C° 0 mm 2 mps 754 mmHg 98%
03:00 -25°C° 0 mm 2 mps 754 mmHg 98%
04:00 -25°C° 0 mm 2 mps 754 mmHg 98%
05:00 -26°C° 0 mm 2 mps 755 mmHg 98%
06:00 -23°C° 0 mm 1 mps 755 mmHg 98%
07:00 -21°C° 0 mm 1 mps 755 mmHg 96%
08:00 -20°C° 0 mm 1 mps 756 mmHg 95%
09:00 -18°C° 0 mm 1 mps 756 mmHg 93%
10:00 -16°C° 0 mm 1 mps 756 mmHg 90%
11:00 -14°C° 0 mm 1 mps 756 mmHg 88%
12:00 -12°C° 0 mm 0 mps 756 mmHg 85%
13:00 -12°C° 0 mm 1 mps 756 mmHg 86%
14:00 -12°C° 0 mm 1 mps 756 mmHg 87%
15:00 -13°C° 0 mm 2 mps 756 mmHg 87%
16:00 -15°C° 0 mm 2 mps 755 mmHg 90%
17:00 -16°C° 0 mm 2 mps 755 mmHg 93%
18:00 -18°C° 0 mm 2 mps 754 mmHg 96%
19:00 -18°C° 0 mm 2 mps 754 mmHg 97%
20:00 -19°C° 0 mm 2 mps 754 mmHg 97%
21:00 -22°C° 0 mm 3 mps 754 mmHg 97%
22:00 -22°C° 0 mm 3 mps 753 mmHg 97%
23:00 -22°C° 0 mm 3 mps 752 mmHg 97%

2 March, Tuesday

Time Temperature Precipitation Wind Pressure Humidity
00:00 -23°C° 0 mm 4 mps 751 mmHg 97%
01:00 -22°C° 0 mm 4 mps 750 mmHg 97%
02:00 -20°C° 0 mm 4 mps 749 mmHg 97%
03:00 -19°C° 0 mm 4 mps 748 mmHg 96%
04:00 -19°C° 0.2 mm 5 mps 747 mmHg 96%
05:00 -19°C° 0.2 mm 5 mps 746 mmHg 95%
06:00 -18°C° 0.2 mm 5 mps 745 mmHg 94%
07:00 -17°C° 0.2 mm 5 mps 744 mmHg 94%
08:00 -15°C° 0.2 mm 5 mps 744 mmHg 94%
09:00 -14°C° 0.2 mm 5 mps 743 mmHg 93%
10:00 -12°C° 0.2 mm 5 mps 742 mmHg 94%
11:00 -11°C° 0.2 mm 5 mps 741 mmHg 94%
12:00 -8°C° 0.2 mm 5 mps 741 mmHg 94%
13:00 -7°C° 0.4 mm 5 mps 740 mmHg 95%
14:00 -5°C° 0.4 mm 4 mps 740 mmHg 95%
15:00 -4°C° 0.4 mm 4 mps 739 mmHg 96%
16:00 -4°C° 0.3 mm 3 mps 739 mmHg 96%
17:00 -4°C° 0.3 mm 3 mps 739 mmHg 97%
18:00 -2°C° 0.3 mm 2 mps 739 mmHg 97%
19:00 -2°C° 0.4 mm 2 mps 739 mmHg 98%
20:00 -2°C° 0.4 mm 2 mps 739 mmHg 98%
21:00 -2°C° 0.4 mm 2 mps 739 mmHg 98%
22:00 -4°C° 0.3 mm 3 mps 739 mmHg 97%
23:00 -5°C° 0.3 mm 3 mps 739 mmHg 95%

3 March, Wednesday

Time Temperature Precipitation Wind Pressure Humidity
00:00 -7°C° 0.3 mm 4 mps 739 mmHg 94%
01:00 -9°C° 0 mm 4 mps 740 mmHg 94%
02:00 -9°C° 0 mm 3 mps 740 mmHg 95%
03:00 -10°C° 0 mm 3 mps 740 mmHg 95%
04:00 -12°C° 0 mm 3 mps 740 mmHg 96%
05:00 -12°C° 0 mm 3 mps 741 mmHg 96%
06:00 -13°C° 0 mm 3 mps 741 mmHg 96%
07:00 -12°C° 0 mm 3 mps 741 mmHg 95%
08:00 -9°C° 0 mm 3 mps 742 mmHg 95%
09:00 -8°C° 0 mm 3 mps 742 mmHg 94%
10:00 -8°C° 0 mm 4 mps 742 mmHg 93%
11:00 -7°C° 0 mm 4 mps 743 mmHg 92%
12:00 -5°C° 0 mm 4 mps 743 mmHg 92%
13:00 -5°C° 0.1 mm 4 mps 743 mmHg 91%
14:00 -6°C° 0.1 mm 5 mps 744 mmHg 91%
15:00 -6°C° 0.1 mm 5 mps 744 mmHg 91%
16:00 -7°C° 0.1 mm 5 mps 744 mmHg 90%
17:00 -8°C° 0.1 mm 5 mps 745 mmHg 89%
18:00 -9°C° 0.1 mm 4 mps 745 mmHg 88%
19:00 -10°C° 0 mm 4 mps 745 mmHg 90%
20:00 -12°C° 0 mm 3 mps 746 mmHg 91%
21:00 -13°C° 0 mm 3 mps 746 mmHg 92%
22:00 -13°C° 0 mm 3 mps 746 mmHg 94%
23:00 -14°C° 0 mm 3 mps 746 mmHg 95%

4 March, Thursday

Time Temperature Precipitation Wind Pressure Humidity
00:00 -14°C° 0 mm 3 mps 746 mmHg 96%
01:00 -14°C° 0 mm 3 mps 746 mmHg 97%
02:00 -14°C° 0 mm 2 mps 746 mmHg 97%
03:00 -14°C° 0 mm 2 mps 746 mmHg 97%
04:00 -14°C° 0 mm 2 mps 747 mmHg 97%
05:00 -15°C° 0 mm 2 mps 747 mmHg 97%
06:00 -15°C° 0 mm 2 mps 747 mmHg 97%
07:00 -14°C° 0 mm 2 mps 747 mmHg 97%
08:00 -13°C° 0 mm 2 mps 747 mmHg 96%
09:00 -14°C° 0 mm 3 mps 747 mmHg 96%
10:00 -12°C° 0 mm 3 mps 746 mmHg 95%
11:00 -10°C° 0 mm 3 mps 746 mmHg 94%
12:00 -9°C° 0 mm 4 mps 745 mmHg 92%
13:00 -9°C° 0 mm 4 mps 744 mmHg 92%
14:00 -10°C° 0 mm 5 mps 744 mmHg 91%
15:00 -9°C° 0 mm 6 mps 743 mmHg 90%
16:00 -9°C° 0.3 mm 6 mps 742 mmHg 92%
17:00 -8°C° 0.3 mm 7 mps 741 mmHg 93%
18:00 -8°C° 0.3 mm 7 mps 739 mmHg 94%
19:00 -7°C° 0.5 mm 7 mps 739 mmHg 94%
20:00 -6°C° 0.5 mm 7 mps 738 mmHg 94%
21:00 -4°C° 0.5 mm 7 mps 737 mmHg 94%
22:00 -4°C° 0.4 mm 7 mps 737 mmHg 94%
23:00 -4°C° 0.4 mm 7 mps 736 mmHg 95%
Show more